User: anonymous   Login
Location: Unspecified
(0.0000°N, 0.0000°E)
Time: 05:09:35
(UTC+00:00)
Language:

Chunghua 1 - Orbit

View from above orbital plane
View from above orbital plane
View from above satellite
View from above satellite

Ground track
Ground track

The orbit data is extracted from the following two-line orbital elements,

1 25616U 99002A   18292.34578657  .00001820  00000-0  65160-4 0  9990
2 25616  34.9466 286.3575 0024430 251.0299 108.7768 15.28268112 84332
Epoch (UTC): 19 October 2018 08:17:55
Eccentricity: 0.0024430
inclination: 34.9466°
perigee height: 464 km
apogee height: 498 km
right ascension of ascending node: 286.3575°
argument of perigee: 251.0299°
revolutions per day: 15.28268112
mean anomaly at epoch: 108.7768°
orbit number at epoch: 8433

The dashed part of the orbit path shows where the satellite is in the earth's shadow,  

DLR